Time,TemperatureF,DewpointF,PressureIn,WindDirection,WindDirectionDegrees,WindSpeedMPH,WindSpeedGustMPH,Humidity,HourlyPrecipIn,Conditions,Clouds,dailyrainin,SoftwareType,DateUTC
2013-09-28 00:03:00,55.5,54.0,30.15,ENE,78,0.0,-999.0,93,-99.99,,,0.00,weatherlink.com 1.10,2013-09-28 04:03:00,
2013-09-28 00:18:00,55.5,54.0,30.16,ENE,78,0.0,-999.0,93,-99.99,,,0.00,weatherlink.com 1.10,2013-09-28 04:18:00,
2013-09-28 00:33:00,55.4,54.0,30.16,ENE,78,0.0,-999.0,93,-99.99,,,0.00,weatherlink.com 1.10,2013-09-28 04:33:00,
2013-09-28 00:58:00,55.4,54.0,30.16,ENE,78,0.0,-999.0,93,-99.99,,,0.00,weatherlink.com 1.10,2013-09-28 04:58:00,
2013-09-28 01:03:00,54.9,53.0,30.15,ENE,78,0.0,-999.0,93,-99.99,,,0.00,weatherlink.com 1.10,2013-09-28 05:03:00,
2013-09-28 01:18:00,54.6,53.0,30.15,ENE,78,0.0,-999.0,93,-99.99,,,0.00,weatherlink.com 1.10,2013-09-28 05:18:00,
2013-09-28 01:33:00,54.4,53.0,30.15,ENE,78,0.0,-999.0,94,-99.99,,,0.00,weatherlink.com 1.10,2013-09-28 05:33:00,
2013-09-28 01:58:00,54.2,53.0,30.15,ENE,78,0.0,-999.0,94,-99.99,,,0.00,weatherlink.com 1.10,2013-09-28 05:58:00,
2013-09-28 02:03:00,54.1,53.0,30.15,ENE,78,0.0,-999.0,94,-99.99,,,0.00,weatherlink.com 1.10,2013-09-28 06:03:00,
2013-09-28 02:18:00,54.0,52.0,30.15,ENE,78,0.0,-999.0,94,-99.99,,,0.00,weatherlink.com 1.10,2013-09-28 06:18:00,
2013-09-28 02:33:00,53.4,52.0,30.15,ENE,78,0.0,-999.0,94,-99.99,,,0.00,weatherlink.com 1.10,2013-09-28 06:33:00,
2013-09-28 02:58:00,53.2,52.0,30.15,ENE,78,0.0,-999.0,94,-99.99,,,0.00,weatherlink.com 1.10,2013-09-28 06:58:00,
2013-09-28 03:03:00,52.5,51.0,30.15,ENE,78,0.0,-999.0,94,-99.99,,,0.00,weatherlink.com 1.10,2013-09-28 07:03:00,
2013-09-28 03:18:00,52.1,51.0,30.15,ENE,78,0.0,-999.0,94,-99.99,,,0.00,weatherlink.com 1.10,2013-09-28 07:18:00,
2013-09-28 03:33:00,51.8,50.0,30.15,ENE,78,0.0,-999.0,94,-99.99,,,0.00,weatherlink.com 1.10,2013-09-28 07:33:00,
2013-09-28 03:58:00,51.7,50.0,30.15,ENE,78,0.0,-999.0,94,-99.99,,,0.00,weatherlink.com 1.10,2013-09-28 07:58:00,
2013-09-28 04:03:00,51.1,50.0,30.15,ENE,78,0.0,-999.0,94,-99.99,,,0.00,weatherlink.com 1.10,2013-09-28 08:03:00,
2013-09-28 04:18:00,50.6,49.0,30.15,ENE,78,0.0,-999.0,94,-99.99,,,0.00,weatherlink.com 1.10,2013-09-28 08:18:00,
2013-09-28 04:33:00,50.2,49.0,30.16,ENE,78,0.0,-999.0,94,-99.99,,,0.00,weatherlink.com 1.10,2013-09-28 08:33:00,
2013-09-28 04:58:00,50.1,49.0,30.16,ENE,78,0.0,-999.0,94,-99.99,,,0.00,weatherlink.com 1.10,2013-09-28 08:58:00,
2013-09-28 05:03:00,49.9,48.0,30.16,ENE,78,0.0,-999.0,94,-99.99,,,0.00,weatherlink.com 1.10,2013-09-28 09:03:00,
2013-09-28 05:18:00,49.9,49.0,30.16,ENE,78,0.0,-999.0,95,-99.99,,,0.00,weatherlink.com 1.10,2013-09-28 09:18:00,
2013-09-28 05:33:00,50.0,49.0,30.16,ENE,78,0.0,-999.0,95,-99.99,,,0.00,weatherlink.com 1.10,2013-09-28 09:33:00,
2013-09-28 05:58:00,49.9,49.0,30.16,ENE,78,0.0,-999.0,95,-99.99,,,0.00,weatherlink.com 1.10,2013-09-28 09:58:00,
2013-09-28 06:03:00,49.8,49.0,30.17,ENE,78,0.0,-999.0,95,-99.99,,,0.00,weatherlink.com 1.10,2013-09-28 10:03:00,
2013-09-28 06:18:00,49.8,49.0,30.17,ENE,78,0.0,-999.0,95,-99.99,,,0.00,weatherlink.com 1.10,2013-09-28 10:18:00,
2013-09-28 06:33:00,49.8,49.0,30.18,ENE,78,0.0,-999.0,95,-99.99,,,0.00,weatherlink.com 1.10,2013-09-28 10:33:00,
2013-09-28 06:58:00,49.9,49.0,30.18,ENE,78,0.0,-999.0,95,-99.99,,,0.00,weatherlink.com 1.10,2013-09-28 10:58:00,
2013-09-28 07:03:00,49.8,49.0,30.19,ENE,78,0.0,-999.0,95,-99.99,,,0.00,weatherlink.com 1.10,2013-09-28 11:03:00,
2013-09-28 07:18:00,49.5,48.0,30.20,ENE,78,0.0,-999.0,95,-99.99,,,0.00,weatherlink.com 1.10,2013-09-28 11:18:00,
2013-09-28 07:33:00,49.3,48.0,30.20,ENE,78,0.0,-999.0,95,-99.99,,,0.00,weatherlink.com 1.10,2013-09-28 11:33:00,
2013-09-28 07:58:00,49.7,48.0,30.21,ENE,78,0.0,-999.0,95,-99.99,,,0.00,weatherlink.com 1.10,2013-09-28 11:58:00,
2013-09-28 08:03:00,49.7,48.0,30.21,ENE,78,0.0,-999.0,95,-99.99,,,0.00,weatherlink.com 1.10,2013-09-28 12:03:00,
2013-09-28 08:18:00,50.1,49.0,30.21,ENE,78,0.0,-999.0,95,-99.99,,,0.00,weatherlink.com 1.10,2013-09-28 12:18:00,
2013-09-28 08:33:00,51.6,51.0,30.21,ENE,78,0.0,-999.0,96,-99.99,,,0.00,weatherlink.com 1.10,2013-09-28 12:33:00,
2013-09-28 08:56:00,53.9,53.0,30.21,ENE,78,0.0,-999.0,96,-99.99,,,0.00,weatherlink.com 1.10,2013-09-28 12:56:00,
2013-09-28 09:19:00,58.4,57.0,30.22,ENE,78,0.0,-999.0,96,-99.99,,,0.00,weatherlink.com 1.10,2013-09-28 13:19:00,
2013-09-28 09:39:00,59.0,58.0,30.22,ENE,78,0.0,-999.0,96,-99.99,,,0.00,weatherlink.com 1.10,2013-09-28 13:39:00,
2013-09-28 09:49:00,60.9,60.0,30.22,ENE,78,0.0,-999.0,96,-99.99,,,0.00,weatherlink.com 1.10,2013-09-28 13:49:00,
2013-09-28 10:04:00,63.0,60.0,30.23,ENE,78,1.0,-999.0,90,-99.99,,,0.00,weatherlink.com 1.10,2013-09-28 14:04:00,
2013-09-28 10:19:00,65.3,61.0,30.23,ENE,78,0.0,-999.0,86,-99.99,,,0.00,weatherlink.com 1.10,2013-09-28 14:19:00,
2013-09-28 10:39:00,66.2,61.0,30.23,ENE,78,0.0,-999.0,84,-99.99,,,0.00,weatherlink.com 1.10,2013-09-28 14:39:00,
2013-09-28 10:49:00,68.8,60.0,30.23,WSW,240,4.0,-999.0,74,-99.99,,,0.00,weatherlink.com 1.10,2013-09-28 14:49:00,
2013-09-28 11:04:00,69.9,62.0,30.23,South,189,0.0,-999.0,76,-99.99,,,0.00,weatherlink.com 1.10,2013-09-28 15:04:00,
2013-09-28 11:19:00,71.0,62.0,30.23,WSW,252,3.0,-999.0,73,-99.99,,,0.00,weatherlink.com 1.10,2013-09-28 15:19:00,
2013-09-28 11:39:00,71.3,62.0,30.23,West,267,3.0,-999.0,73,-99.99,,,0.00,weatherlink.com 1.10,2013-09-28 15:39:00,
2013-09-28 11:49:00,73.2,62.0,30.22,WNW,292,8.0,-999.0,69,-99.99,,,0.00,weatherlink.com 1.10,2013-09-28 15:49:00,
2013-09-28 12:04:00,74.3,62.0,30.22,West,273,5.0,-999.0,66,-99.99,,,0.00,weatherlink.com 1.10,2013-09-28 16:04:00,
2013-09-28 12:20:00,74.4,63.0,30.21,WSW,251,5.0,-999.0,67,-99.99,,,0.00,weatherlink.com 1.10,2013-09-28 16:20:00,
2013-09-28 12:39:00,74.6,62.0,30.21,West,267,4.0,-999.0,66,-99.99,,,0.00,weatherlink.com 1.10,2013-09-28 16:39:00,
2013-09-28 12:50:00,75.8,63.0,30.20,West,265,0.0,-999.0,64,-99.99,,,0.00,weatherlink.com 1.10,2013-09-28 16:50:00,
2013-09-28 13:05:00,76.6,62.0,30.20,WNW,285,0.0,-999.0,61,-99.99,,,0.00,weatherlink.com 1.10,2013-09-28 17:05:00,
2013-09-28 13:20:00,77.2,62.0,30.20,WNW,299,0.0,-999.0,60,-99.99,,,0.00,weatherlink.com 1.10,2013-09-28 17:20:00,
2013-09-28 13:40:00,77.7,63.0,30.20,WNW,288,2.0,-999.0,60,-99.99,,,0.00,weatherlink.com 1.10,2013-09-28 17:40:00,
2013-09-28 13:50:00,77.9,61.0,30.18,WSW,248,4.0,-999.0,56,-99.99,,,0.00,weatherlink.com 1.10,2013-09-28 17:50:00,
2013-09-28 14:05:00,77.5,60.0,30.18,West,273,3.0,-999.0,56,-99.99,,,0.00,weatherlink.com 1.10,2013-09-28 18:05:00,
2013-09-28 14:20:00,77.1,61.0,30.17,WSW,256,0.0,-999.0,58,-99.99,,,0.00,weatherlink.com 1.10,2013-09-28 18:20:00,
2013-09-28 14:40:00,77.9,61.0,30.16,WSW,256,1.0,-999.0,56,-99.99,,,0.00,weatherlink.com 1.10,2013-09-28 18:40:00,
2013-09-28 14:50:00,79.6,59.0,30.16,West,277,6.0,-999.0,49,-99.99,,,0.00,weatherlink.com 1.10,2013-09-28 18:50:00,
2013-09-28 15:05:00,79.9,61.0,30.15,WNW,287,7.0,-999.0,52,-99.99,,,0.00,weatherlink.com 1.10,2013-09-28 19:05:00,
2013-09-28 15:20:00,79.7,59.0,30.15,WNW,289,4.0,-999.0,50,-99.99,,,0.00,weatherlink.com 1.10,2013-09-28 19:20:00,
2013-09-28 15:40:00,80.0,59.0,30.14,NNW,335,0.0,-999.0,49,-99.99,,,0.00,weatherlink.com 1.10,2013-09-28 19:40:00,
2013-09-28 15:50:00,79.1,58.0,30.14,NW,308,0.0,-999.0,49,-99.99,,,0.00,weatherlink.com 1.10,2013-09-28 19:50:00,
2013-09-28 16:05:00,79.5,60.0,30.13,NW,308,2.0,-999.0,51,-99.99,,,0.00,weatherlink.com 1.10,2013-09-28 20:05:00,
2013-09-28 16:20:00,80.3,60.0,30.13,NW,318,2.0,-999.0,50,-99.99,,,0.00,weatherlink.com 1.10,2013-09-28 20:20:00,
2013-09-28 16:40:00,80.7,59.0,30.13,NW,318,0.0,-999.0,48,-99.99,,,0.00,weatherlink.com 1.10,2013-09-28 20:40:00,
2013-09-28 16:50:00,80.3,59.0,30.13,NW,320,0.0,-999.0,48,-99.99,,,0.00,weatherlink.com 1.10,2013-09-28 20:50:00,
2013-09-28 17:05:00,80.8,59.0,30.13,West,277,0.0,-999.0,47,-99.99,,,0.00,weatherlink.com 1.10,2013-09-28 21:05:00,
2013-09-28 17:20:00,79.8,58.0,30.12,West,273,0.0,-999.0,47,-99.99,,,0.00,weatherlink.com 1.10,2013-09-28 21:20:00,
2013-09-28 17:40:00,79.2,57.0,30.12,West,273,0.0,-999.0,47,-99.99,,,0.00,weatherlink.com 1.10,2013-09-28 21:40:00,
2013-09-28 17:50:00,79.3,58.0,30.12,West,273,3.0,-999.0,49,-99.99,,,0.00,weatherlink.com 1.10,2013-09-28 21:50:00,
2013-09-28 18:05:00,79.2,60.0,30.12,West,273,0.0,-999.0,52,-99.99,,,0.00,weatherlink.com 1.10,2013-09-28 22:05:00,
2013-09-28 18:20:00,79.0,61.0,30.11,West,273,0.0,-999.0,54,-99.99,,,0.00,weatherlink.com 1.10,2013-09-28 22:20:00,
2013-09-28 18:40:00,78.7,61.0,30.12,WSW,240,0.0,-999.0,54,-99.99,,,0.00,weatherlink.com 1.10,2013-09-28 22:40:00,
2013-09-28 18:50:00,77.3,62.0,30.11,WSW,240,0.0,-999.0,60,-99.99,,,0.00,weatherlink.com 1.10,2013-09-28 22:50:00,
2013-09-28 19:05:00,75.6,63.0,30.11,WSW,240,0.0,-999.0,66,-99.99,,,0.00,weatherlink.com 1.10,2013-09-28 23:05:00,
2013-09-28 19:20:00,73.1,63.0,30.11,WSW,240,0.0,-999.0,71,-99.99,,,0.00,weatherlink.com 1.10,2013-09-28 23:20:00,
2013-09-28 19:40:00,71.8,63.0,30.11,WSW,240,0.0,-999.0,74,-99.99,,,0.00,weatherlink.com 1.10,2013-09-28 23:40:00,
2013-09-28 19:50:00,68.6,62.0,30.11,WSW,240,0.0,-999.0,79,-99.99,,,0.00,weatherlink.com 1.10,2013-09-28 23:50:00,
2013-09-28 20:05:00,67.2,62.0,30.11,WSW,240,0.0,-999.0,82,-99.99,,,0.00,weatherlink.com 1.10,2013-09-29 00:05:00,
2013-09-28 20:20:00,65.9,61.0,30.12,WSW,240,0.0,-999.0,85,-99.99,,,0.00,weatherlink.com 1.10,2013-09-29 00:20:00,
2013-09-28 20:40:00,65.5,61.0,30.12,WSW,240,0.0,-999.0,85,-99.99,,,0.00,weatherlink.com 1.10,2013-09-29 00:40:00,
2013-09-28 20:50:00,64.2,60.0,30.12,WSW,240,0.0,-999.0,87,-99.99,,,0.00,weatherlink.com 1.10,2013-09-29 00:50:00,
2013-09-28 21:05:00,63.6,60.0,30.12,WSW,240,0.0,-999.0,88,-99.99,,,0.00,weatherlink.com 1.10,2013-09-29 01:05:00,
2013-09-28 21:20:00,63.0,60.0,30.12,WSW,240,0.0,-999.0,89,-99.99,,,0.00,weatherlink.com 1.10,2013-09-29 01:20:00,
2013-09-28 21:40:00,62.9,60.0,30.12,WSW,240,0.0,-999.0,90,-99.99,,,0.00,weatherlink.com 1.10,2013-09-29 01:40:00,
2013-09-28 21:50:00,62.1,59.0,30.12,WSW,240,0.0,-999.0,90,-99.99,,,0.00,weatherlink.com 1.10,2013-09-29 01:50:00,
2013-09-28 22:05:00,61.7,59.0,30.12,WSW,240,0.0,-999.0,91,-99.99,,,0.00,weatherlink.com 1.10,2013-09-29 02:05:00,
2013-09-28 22:20:00,61.2,59.0,30.12,WSW,240,0.0,-999.0,91,-99.99,,,0.00,weatherlink.com 1.10,2013-09-29 02:20:00,
2013-09-28 22:41:00,61.1,59.0,30.12,WSW,240,0.0,-999.0,92,-99.99,,,0.00,weatherlink.com 1.10,2013-09-29 02:41:00,
2013-09-28 22:50:00,60.8,59.0,30.12,WSW,240,0.0,-999.0,92,-99.99,,,0.00,weatherlink.com 1.10,2013-09-29 02:50:00,
2013-09-28 23:05:00,60.4,58.0,30.12,WSW,240,0.0,-999.0,93,-99.99,,,0.00,weatherlink.com 1.10,2013-09-29 03:05:00,
2013-09-28 23:20:00,60.0,58.0,30.12,WSW,240,0.0,-999.0,93,-99.99,,,0.00,weatherlink.com 1.10,2013-09-29 03:20:00,
2013-09-28 23:40:00,59.9,58.0,30.12,WSW,240,0.0,-999.0,93,-99.99,,,0.00,weatherlink.com 1.10,2013-09-29 03:40:00,
2013-09-28 23:50:00,59.2,57.0,30.12,WSW,240,0.0,-999.0,93,-99.99,,,0.00,weatherlink.com 1.10,2013-09-29 03:50:00,